Location: Cornospital
(48.0620°N, 3.3837°W)
Time: 21:13:16
(UTC+00:00)

Cosmos 1354 Rocket - Pass Details

Date: 17 June 2021
Orbit: 764 x 783 km, 74.0° (Epoch: 03 August)

Event Time Altitude Azimuth Distance (km) Brightness Sun altitude
Rises 23:29:15 0° 336° (NNW) 3,282 8.8 -17.8°
Reaches altitude 10° 23:31:39 10° 335° (NNW) 2,351 7.7 -17.9°
Maximum altitude 23:37:00 79° 250° (WSW) 804 4.0 -18.0°
Enters shadow 23:39:27 33° 169° (SSE) 1,296 4.6 -18.1°
